TimeEDT,TemperatureF,Dew PointF,Humidity,Sea Level PressureIn,VisibilityMPH,Wind Direction,Wind SpeedMPH,Gust SpeedMPH,PrecipitationIn,Events,Conditions,WindDirDegrees,DateUTC
12:15 AM,55.4,51.8,88,30.02,0.5,Calm,Calm,-,N/A,Fog,Fog,0,2013-09-21 04:15:00
12:35 AM,53.6,51.8,94,30.02,0.2,Calm,Calm,-,N/A,Fog,Fog,0,2013-09-21 04:35:00
12:55 AM,53.6,50.0,88,30.02,7.0,Calm,Calm,-,N/A,,Scattered Clouds,0,2013-09-21 04:55:00
1:15 AM,53.6,51.8,94,30.03,10.0,Calm,Calm,-,N/A,,Clear,0,2013-09-21 05:15:00
1:35 AM,53.6,50.0,88,30.02,0.2,Calm,Calm,-,N/A,Fog,Fog,0,2013-09-21 05:35:00
1:55 AM,51.8,50.0,94,30.01,0.2,Calm,Calm,-,N/A,Fog,Fog,0,2013-09-21 05:55:00
2:15 AM,51.8,50.0,94,30.01,2.5,Calm,Calm,-,N/A,,Scattered Clouds,0,2013-09-21 06:15:00
2:35 AM,50.0,48.2,94,30.00,0.2,Calm,Calm,-,N/A,Fog,Fog,0,2013-09-21 06:35:00
2:55 AM,50.0,48.2,94,29.99,0.2,Calm,Calm,-,N/A,Fog,Fog,0,2013-09-21 06:55:00
3:15 AM,51.8,48.2,88,29.98,0.2,Calm,Calm,-,N/A,Fog,Fog,0,2013-09-21 07:15:00
3:35 AM,51.8,48.2,88,29.98,0.2,Calm,Calm,-,N/A,Fog,Fog,0,2013-09-21 07:35:00
3:55 AM,50.0,48.2,94,29.98,0.2,Calm,Calm,-,N/A,Fog,Fog,0,2013-09-21 07:55:00
4:15 AM,50.0,48.2,94,29.98,4.0,Calm,Calm,-,N/A,,Overcast,0,2013-09-21 08:15:00
4:35 AM,48.2,46.4,93,29.98,0.5,Calm,Calm,-,N/A,Fog,Fog,0,2013-09-21 08:35:00
4:55 AM,48.2,46.4,93,29.98,3.0,Calm,Calm,-,N/A,,Scattered Clouds,0,2013-09-21 08:55:00
5:15 AM,48.2,46.4,93,29.98,1.2,Calm,Calm,-,N/A,,Overcast,0,2013-09-21 09:15:00
5:35 AM,46.4,44.6,93,29.98,0.2,Calm,Calm,-,N/A,Fog,Fog,0,2013-09-21 09:35:00
5:55 AM,48.2,46.4,93,29.98,0.8,Calm,Calm,-,N/A,,Overcast,0,2013-09-21 09:55:00
6:15 AM,48.2,44.6,87,29.98,0.5,Calm,Calm,-,N/A,Fog,Fog,0,2013-09-21 10:15:00
6:35 AM,48.2,46.4,93,29.98,0.2,Calm,Calm,-,N/A,Fog,Fog,0,2013-09-21 10:35:00
6:45 AM,46.4,46.4,100,29.98,0.8,Calm,Calm,-,N/A,Fog,Fog,0,2013-09-21 10:45:00
7:45 AM,51.8,51.8,100,29.98,0.2,Calm,Calm,-,N/A,Fog,Fog,0,2013-09-21 11:45:00
8:45 AM,55.4,55.4,100,29.97,0.2,Calm,Calm,-,N/A,Fog,Fog,0,2013-09-21 12:45:00
9:45 AM,59.0,57.2,94,29.94,2.0,Calm,Calm,-,N/A,,Haze,0,2013-09-21 13:45:00
10:20 AM,62.6,59.0,88,29.92,7.0,Calm,Calm,-,N/A,,Overcast,0,2013-09-21 14:20:00
10:45 AM,64.4,59.0,83,29.92,7.0,Calm,Calm,-,N/A,,Overcast,0,2013-09-21 14:45:00
11:45 AM,68.0,60.8,78,29.89,6.0,Calm,Calm,-,N/A,,Haze,0,2013-09-21 15:45:00
12:45 PM,71.6,62.6,73,29.86,10.0,SSW,8.1,-,N/A,,Mostly Cloudy,210,2013-09-21 16:45:00
1:45 PM,73.4,62.6,69,29.83,10.0,South,4.6,-,N/A,,Mostly Cloudy,180,2013-09-21 17:45:00
2:45 PM,75.2,62.6,65,29.79,10.0,WSW,8.1,19.6,N/A,,Mostly Cloudy,240,2013-09-21 18:45:00
3:45 PM,78.8,57.2,47,29.75,10.0,South,13.8,23.0,N/A,,Mostly Cloudy,190,2013-09-21 19:45:00
4:45 PM,78.8,57.2,47,29.74,10.0,SSW,11.5,25.3,N/A,,Mostly Cloudy,210,2013-09-21 20:45:00
5:45 PM,75.2,59.0,57,29.73,10.0,SSW,11.5,-,N/A,,Mostly Cloudy,200,2013-09-21 21:45:00
6:45 PM,73.4,60.8,65,29.70,10.0,SSW,13.8,-,N/A,,Scattered Clouds,210,2013-09-21 22:45:00
7:45 PM,71.6,60.8,69,29.73,10.0,SSW,13.8,16.1,N/A,,Scattered Clouds,200,2013-09-21 23:45:00
8:45 PM,71.6,64.4,78,29.72,10.0,South,12.7,18.4,N/A,,Overcast,190,2013-09-22 00:45:00
9:45 PM,69.8,66.2,88,29.70,6.0,SSW,5.8,-,N/A,Rain,Light Rain,200,2013-09-22 01:45:00
10:55 PM,69.8,66.2,88,29.69,1.8,Calm,Calm,-,0.04,Rain,Heavy Rain,0,2013-09-22 02:55:00
11:15 PM,69.8,66.2,88,29.67,2.5,Calm,Calm,-,0.14,Rain,Heavy Rain,0,2013-09-22 03:15:00
11:35 PM,69.8,66.2,88,29.67,2.5,Calm,Calm,-,0.38,Rain,Rain,0,2013-09-22 03:35:00
11:55 PM,68.0,66.2,94,29.69,5.0,NW,9.2,19.6,0.03,Rain,Heavy Rain,310,2013-09-22 03:55:00